Tracking 30743 objects as of 20-Jun-2025
HD Live streaming from Space Station
objects crossing your sky now

COSMOS 1275 DEB

Track COSMOS 1275 DEB now!
10-day predictions


NORAD ID: 13808
Int'l Code: 1981-053HF
Perigee: 880.5 km
Apogee: 971.6 km
Inclination: 83.0 °
Period: 103.4 minutes
Semi major axis: 7297 km
RCS: 0.015 m2 (small)
Launch date: June 4, 1981
Source: Commonwealth of Independent States (former USSR) (CIS)
Launch site: PLESETSK MISSILE AND SPACE COMPLEX (PKMTR)

Note: This is SATELLITE DEBRIS
Your satellite tracking list
Your tracking list is empty




NASA's NSSDC Master Catalog

Two Line Element Set (TLE):
1 13808U 81053HC  25170.50041471  .00001065  00000-0  79741-3 0  9997
2 13808  83.0319 252.8996 0062467  94.2755 277.3969 13.92777691139787
Source of the keplerian elements: AFSPC